Flag for Germany Weather for the Past 2 Weeks in Frankfurt an der Oder, Brandenburg, Germany

Now
41 °F

Clear.


Feels Like: 41 °F
Forecast: 44 / 63 °F
Wind: 1 mph from North

Location: Berlin-Schoenefeld

Current Time: Apr 30, 2016 at 5:56:54 AM

Latest Report: Apr 30, 2016 at 4:20 AM


Visibility: 10 mi

Pressure: 30.07 "Hg

Humidity: 70%

Dew Point: 32 °F

Location of Frankfurt an der OderLocation

Historic Weather in Frankfurt an der Oder — Graph

°F

Frankfurt an der Oder Temperature Yesterday

Maximum temperature yesterday: 59 °F (at 3:20 PM)
Minimum temperature yesterday: 30 °F (at 5:20 AM)
Average temperature yesterday: 47 °F

High & Low Weather Summary for the Past Weeks

 TemperatureHumidityPressure
High59 °F (Apr 21, 3:50 PM)100% (Apr 15, 4:20 AM)30.36 "Hg (Apr 15, 4:20 AM)
Low30 °F (Apr 29, 5:20 AM)31% (Apr 29, 3:20 PM)29.47 "Hg (Apr 26, 4:20 AM)
Average45 °F71%29.88 "Hg
* Reported Apr 15 4:20 AM — Apr 30 4:20 AM, Frankfurt an der Oder, Weather by CustomWeather, © 2016

Note: Actual official high and low records may vary slightly from our data, if they occured in-between our weather recording intervals... More about our weather records

Advertising

Frankfurt an der Oder Weather History for the Previous 24 Hours

Scroll right to see more
 ConditionsComfort  
Time TempWeatherWind HumidityBarometerVisibility
4:20 AM
Sat, Apr 30
41 °FClear.1 mph70%30.07 "Hg10 mi
3:50 AM41 °FPassing clouds.5 mph70%30.07 "HgN/A
3:20 AM41 °FClear.6 mph70%30.07 "Hg10 mi
2:50 AM43 °FClear.6 mph66%30.07 "Hg10 mi
1:50 AM43 °FClear.2 mph66%30.07 "Hg10 mi
1:20 AM43 °FPassing clouds.3 mph66%30.07 "HgN/A
12:50 AM43 °FPassing clouds.5 mph66%30.09 "HgN/A
12:20 AM43 °FClear.3 mph66%30.07 "Hg10 mi
11:50 PM
Fri, Apr 29
45 °FClear.3 mph57%30.07 "Hg10 mi
11:20 PM45 °FClear.3 mph57%30.07 "Hg10 mi
10:20 PM48 °FClear.5 mph50%30.09 "Hg10 mi
9:50 PM48 °FClear.6 mph50%30.09 "Hg10 mi
9:20 PM52 °FSunny.5 mph41%30.07 "Hg10 mi
8:50 PM54 °FSunny.5 mph35%30.07 "Hg10 mi
8:20 PM52 °FSunny.3 mph44%30.07 "Hg10 mi
7:50 PM54 °FSunny.5 mph41%30.07 "Hg10 mi
7:20 PM54 °FSunny.6 mph41%30.07 "Hg10 mi
6:50 PM55 °FSunny.6 mph36%30.07 "Hg10 mi
6:20 PM57 °FPassing clouds.9 mph31%30.07 "HgN/A
5:50 PM59 °FPassing clouds.10 mph31%30.07 "HgN/A
5:20 PM57 °FPassing clouds.12 mph31%30.07 "HgN/A
4:50 PM57 °FPassing clouds.12 mph31%30.07 "HgN/A
4:20 PM57 °FPassing clouds.9 mph31%30.07 "HgN/A
3:50 PM57 °FPassing clouds.10 mph31%30.07 "HgN/A
3:20 PM59 °FPassing clouds.9 mph31%30.07 "HgN/A
2:50 PM57 °FSunny.14 mph33%30.09 "Hg10 mi
2:20 PM55 °FSunny.12 mph33%30.09 "Hg10 mi
1:50 PM55 °FPassing clouds.13 mph36%30.09 "HgN/A
1:20 PM57 °FPassing clouds.14 mph36%30.09 "HgN/A
12:50 PM55 °FPassing clouds.14 mph33%30.09 "HgN/A
12:20 PM55 °FPassing clouds.15 mph36%30.09 "HgN/A
11:50 AM55 °FSunny.16 mph36%30.09 "Hg10 mi
11:20 AM54 °FPassing clouds.16 mph41%30.09 "HgN/A
10:50 AM52 °FScattered clouds.12 mph47%30.09 "HgN/A
10:20 AM52 °FPassing clouds.12 mph54%30.09 "HgN/A
9:50 AM52 °FPassing clouds.10 mph58%30.09 "HgN/A
9:20 AM48 °FPassing clouds.8 mph66%30.09 "HgN/A
8:50 AM45 °FSunny.8 mph76%30.09 "Hg10 mi
8:20 AM41 °FSunny.8 mph81%30.09 "Hg10 mi
7:50 AM39 °FPassing clouds.7 mph81%30.09 "HgN/A
7:20 AM36 °FSunny.5 mph93%30.07 "Hg10 mi
6:50 AM34 °FSunny.5 mph93%30.07 "Hg10 mi
6:20 AM32 °FClear.3 mph93%30.07 "Hg10 mi
5:50 AM32 °FClear.5 mph100%30.07 "Hg10 mi
5:20 AM30 °FClear.2 mph100%30.07 "Hg10 mi
Weather by CustomWeather, © 2016

See weather overviewHow to use our weather pages